Weather History for Nassau Airport, Bahamas

Change the Weather History Date:

Saturday, October 27, 2012

  Actual Average Record
Temperature  
Mean Temperature 78 °F -  
Max Temperature 83 °F 82 °F - ()
Min Temperature 73 °F 68 °F - ()
Cooling Degree Days 13    
Growing Degree Days 28 (Base 50)    
Moisture  
Dew Point 71 °F    
Average Humidity 76    
Maximum Humidity 94    
Minimum Humidity 56    
Precipitation  
Precipitation 0.00 in 0.09 in - ()
Sea Level Pressure  
Sea Level Pressure 29.51 in    
Wind  
Wind Speed 20 mph ()    
Max Wind Speed 29 mph    
Max Gust Speed 50 mph    
Visibility 6.7 miles    
Events Rain    
T = Trace of Precipitation, MM = Missing Value Source: Averaged Metar Reports

Daily Weather History Graph

Daily Weather History Graph

Search for Another Location

Airport:

Trip Planner

Search our weather history database for the weather conditions in past years. The results will help you decide how hot, cold, wet, or windy it might be!

Date:

Astronomy

Oct. 27, 2012 Rise Set
Actual Time 7:14 AM EDT 6:32 PM EDT
Civil Twilight 6:51 AM EDT 6:55 PM EDT
Nautical Twilight 6:24 AM EDT 7:22 PM EDT
Astronomical Twilight 5:57 AM EDT 7:49 PM EDT
Moon 5:10 PM EDT (10/27) 5:16 AM EDT (10/27)
Length of Visible Light 12h 04m
Length of Day
11h 17m
Waxing Gibbous, 96% of the Moon is Illuminated
Oct 27
Waxing Gibbous
Oct 29
Full
Nov 6
Last Quarter
Nov 13
New
Nov 20
First Quarter

Hourly Weather History & Observations

Time (EDT) Temp. Heat Index Dew Point Humidity Pressure Visibility Wind Dir Wind Speed Gust Speed Precip Events Conditions
12:00 AM 75.2 °F - 69.8 °F 83% 29.40 in 5.6 mi WSW 18.4 mph 49.5 mph N/A Rain Light Rain
1:00 AM 73.4 °F - 69.8 °F 88% 29.41 in 5.6 mi WSW 24.2 mph 43.7 mph N/A Rain Light Rain
2:00 AM 76 °F - 70 °F 78% 29.42 in 7 mi WNW 21.9 mph - - Rain Light Rain
2:00 AM 77.0 °F - 69.8 °F 78% 29.42 in 6.2 mi SW 21.9 mph 36.8 mph N/A   Mostly Cloudy
3:00 AM 75.2 °F - 68.0 °F 78% 29.42 in 6.2 mi WSW 23.0 mph 36.8 mph N/A   Mostly Cloudy
4:00 AM 77.0 °F - 68.0 °F 74% 29.42 in 6.2 mi SW 27.6 mph - N/A   Mostly Cloudy
5:00 AM 77 °F - 70 °F 74% 29.42 in 8 mi SW 27.6 mph - -   Mostly Cloudy
5:00 AM 77.0 °F - 69.8 °F 78% 29.42 in 6.2 mi SW 27.6 mph - N/A   Mostly Cloudy
6:00 AM 77.0 °F - 68.0 °F 74% 29.43 in 6.2 mi WSW 24.2 mph - N/A   Mostly Cloudy
8:00 AM 77 °F - 69 °F 70% 29.50 in 8 mi SW 19.6 mph - -   Mostly Cloudy
8:00 AM 77.0 °F - 69.8 °F 78% 29.50 in 6.2 mi SW 19.6 mph 32.2 mph N/A   Mostly Cloudy
9:00 AM 77.0 °F - 68.0 °F 74% 29.52 in 6.2 mi SW 21.9 mph 36.8 mph N/A   Mostly Cloudy
10:00 AM 77.0 °F - 68.0 °F 74% 29.54 in 6.2 mi WSW 20.7 mph 39.1 mph N/A   Mostly Cloudy
11:00 AM 79 °F - 70 °F 66% 29.55 in 9 mi WSW 21.9 mph - -   Mostly Cloudy
11:00 AM 78.8 °F - 69.8 °F 74% 29.54 in 6.2 mi WSW 21.9 mph - N/A   Mostly Cloudy
12:00 PM 78.8 °F - 68.0 °F 69% 29.54 in 6.2 mi WSW 21.9 mph 28.8 mph N/A   Mostly Cloudy
1:00 PM 78.8 °F - 68.0 °F 69% 29.52 in 6.2 mi WSW 18.4 mph 36.8 mph N/A   Mostly Cloudy
2:00 PM 83 °F - 70 °F 56% 29.51 in 9 mi WSW 21.9 mph - -   Mostly Cloudy
2:00 PM 84.2 °F 88.4 °F 69.8 °F 62% 29.51 in 6.2 mi WSW 21.9 mph 36.8 mph N/A   Scattered Clouds
4:00 PM 80.6 °F 88.1 °F 78.8 °F 94% 29.51 in 6.2 mi West 28.8 mph - N/A   Scattered Clouds
5:00 PM 84.2 °F 90.9 °F 73.4 °F 70% 29.52 in 6.2 mi WSW 28.8 mph - N/A   Scattered Clouds
6:00 PM 80.6 °F 88.1 °F 78.8 °F 94% 29.54 in 6.2 mi West 20.7 mph - N/A   Scattered Clouds
7:00 PM 78.8 °F - 77.0 °F 94% 29.55 in 6.2 mi WSW 19.6 mph - N/A   Partly Cloudy
8:00 PM 79 °F - 69 °F 64% 29.58 in 9 mi WSW 23.0 mph - -   Scattered Clouds
8:00 PM 78.8 °F - 69.8 °F 74% 29.58 in 6.2 mi WSW 23.0 mph - N/A   Partly Cloudy
9:00 PM 78.8 °F - 75.2 °F 89% 29.61 in 6.2 mi SW 18.4 mph - N/A   Partly Cloudy
10:00 PM 77.0 °F - 75.2 °F 94% 29.63 in 6.2 mi West 16.1 mph - N/A   Partly Cloudy
11:00 PM 78 °F - 69 °F 67% 29.65 in 9 mi West 11.5 mph - -   Scattered Clouds